Simultaneous Nadir Overpasses (SNOs) Predictions

Prediction of SNOs between TERRA and METOP-C Satellite Orbit:

Table of predicted SNOs for the next 14.0 days since TLE Epoch: 2/6/2021
Index Date (TERRA) Time (TERRA) Lat,Lon (TERRA) SZA (TERRA ) Date (METOP-C) Time (METOP-C) Lat,Lon (METOP-C) SZA (METOP-C ) Distance(km) Time Diff (sec)
1 02/08/2021 16:27:07 81.27, -20.56 98.25 02/08/2021 16:25:56 81.27, -20.56 98.22 0.22 71
2 02/08/2021 17:16:33 -81.29, 147.38 81.73 02/08/2021 17:16:36 -81.29, 147.43 81.72 0.96 3
3 02/11/2021 12:01:20 81.27, 45.90 97.34 02/11/2021 12:00:19 81.27, 45.72 97.29 3.17 61
4 02/11/2021 12:50:46 -81.29,-146.14 82.63 02/11/2021 12:50:59 -81.28,-146.25 82.64 2.10 13
5 02/14/2021 07:35:32 81.27, 112.33 96.40 02/14/2021 07:34:40 81.28, 112.38 96.38 0.83 52
6 02/14/2021 08:24:58 -81.29, -79.68 83.57 02/14/2021 08:25:20 -81.29, -79.55 83.55 2.14 22
7 02/17/2021 03:09:45 81.27, 178.74 95.43 02/17/2021 03:09:03 81.27, 178.64 95.40 1.61 42
8 02/17/2021 03:59:11 -81.29, -13.25 84.54 02/17/2021 03:59:43 -81.29, -13.26 84.53 0.55 32
9 02/19/2021 22:43:58 81.27,-114.89 94.43 02/19/2021 22:43:25 81.28,-114.70 94.44 3.36 33



Historial Predications of SNOs between TERRA and METOP-C
